Air Quality Table

TIMESTAMP NO2 SO2 O3 PM10 PM2.5 TEMP HUM AIRPRES WS WD NO
2022-01-24 17:00 14.32 µg/m3 1.49 µg/m3 68.35 µg/m3 14.48 µg/m3 4.45 µg/m3 11.42 °C 72.57 % 1,017.46 mbar 3.02 m/s 16.2 Deg 2.85 µg/m3
2022-01-24 16:00 10.93 µg/m3 1.72 µg/m3 72.62 µg/m3 14.89 µg/m3 5.74 µg/m3 11.88 °C 68.7 % 1,017.34 mbar 3.78 m/s 6.28 Deg 2.75 µg/m3
2022-01-24 15:00 15.85 µg/m3 1.67 µg/m3 70.92 µg/m3 11.47 µg/m3 5.99 µg/m3 12.18 °C 67.76 % 1,017.08 mbar 4.02 m/s 355.33 Deg 3.33 µg/m3
2022-01-24 14:00 10.51 µg/m3 1.68 µg/m3 75.38 µg/m3 14.46 µg/m3 6.36 µg/m3 12.26 °C 68.24 % 1,017.37 mbar 3.1 m/s 183.23 Deg 2.74 µg/m3
2022-01-24 13:00 9.84 µg/m3 1.8 µg/m3 75.99 µg/m3 19.12 µg/m3 7.09 µg/m3 12.94 °C 61.54 % 1,017.93 mbar 3.89 m/s 265.2 Deg 2.81 µg/m3
2022-01-24 12:00 10.5 µg/m3 1.83 µg/m3 75.26 µg/m3 26.46 µg/m3 9.88 µg/m3 12.66 °C 61.86 % 1,018.66 mbar 3.65 m/s 92.25 Deg 2.69 µg/m3
2022-01-24 11:00 12.76 µg/m3 1.98 µg/m3 70.54 µg/m3 33.64 µg/m3 13.44 µg/m3 12.75 °C 61.97 % 1,019.00 mbar 3.63 m/s 264.8 Deg 4.18 µg/m3
2022-01-24 10:00 37.97 µg/m3 2.31 µg/m3 43.73 µg/m3 39.89 µg/m3 17.78 µg/m3 12.39 °C 58.85 % 1,018.84 mbar 2.71 m/s 332.72 Deg 19.37 µg/m3
2022-01-24 09:00 70.85 µg/m3 2.78 µg/m3 12.37 µg/m3 33.59 µg/m3 10.58 µg/m3 10.89 °C 62.71 % 1,018.77 mbar 1.33 m/s 317.4 Deg 55.51 µg/m3
2022-01-24 08:00 71.32 µg/m3 2.31 µg/m3 12.19 µg/m3 23.94 µg/m3 5.98 µg/m3 10.28 °C 65.03 % 1,018.64 mbar 2.16 m/s 334 Deg 29.29 µg/m3
2022-01-24 07:00 73.19 µg/m3 2.24 µg/m3 6.56 µg/m3 10.25 µg/m3 5.48 µg/m3 9.75 °C 66.12 % 1,018.56 mbar 1.84 m/s 339.88 Deg 23.09 µg/m3
2022-01-24 06:00 26.19 µg/m3 1.88 µg/m3 44.95 µg/m3 8.34 µg/m3 8.65 µg/m3 9.96 °C 53.36 % 1,018.51 mbar 1.63 m/s 166.98 Deg 3.57 µg/m3
2022-01-24 05:00 10.42 µg/m3 1.64 µg/m3 65.37 µg/m3 8.13 µg/m3 11.27 µg/m3 10.21 °C 59.5 % 1,018.77 mbar 1.39 m/s 20.78 Deg 0.81 µg/m3
2022-01-24 04:00 7.14 µg/m3 1.7 µg/m3 71.8 µg/m3 10.73 µg/m3 12.92 µg/m3 10.35 °C 58.37 % 1,019.01 mbar 1.39 m/s 30.85 Deg 0.36 µg/m3
2022-01-24 03:00 3 µg/m3 1.84 µg/m3 78.69 µg/m3 13.27 µg/m3 17.91 µg/m3 10.78 °C 56.12 % 1,019.33 mbar 1.67 m/s 32.57 Deg 0.22 µg/m3
2022-01-24 02:00 2.41 µg/m3 1.65 µg/m3 80.48 µg/m3 17 µg/m3 16.71 µg/m3 10.84 °C 65.34 % 1,019.54 mbar 1.69 m/s 111.43 Deg 0.22 µg/m3
2022-01-24 01:00 3.09 µg/m3 1.83 µg/m3 83.28 µg/m3 19.02 µg/m3 7.52 µg/m3 10.97 °C 67.25 % 1,019.62 mbar 1.91 m/s 175.12 Deg 0.21 µg/m3
2022-01-24 00:00 8.57 µg/m3 1.77 µg/m3 76.44 µg/m3 16.27 µg/m3 3.23 µg/m3 11.38 °C 65.87 % 1,019.69 mbar 1.97 m/s 234.23 Deg 0.52 µg/m3
2022-01-23 23:00 17.13 µg/m3 1.64 µg/m3 60.09 µg/m3 23.55 µg/m3 2.23 µg/m3 11.08 °C 65.1 % 1,019.52 mbar 1.24 m/s 315.07 Deg 1.24 µg/m3
2022-01-23 22:00 20.61 µg/m3 1.86 µg/m3 56.13 µg/m3 21.95 µg/m3 1.13 µg/m3 11.01 °C 66.35 % 1,019.68 mbar 1.56 m/s 307.52 Deg 1.38 µg/m3
2022-01-23 21:00 23.25 µg/m3 1.6 µg/m3 55.1 µg/m3 29.37 µg/m3 1.43 µg/m3 11.02 °C 64.87 % 1,019.76 mbar 1.57 m/s 293.33 Deg 1.83 µg/m3
2022-01-23 20:00 30.7 µg/m3 1.88 µg/m3 49.5 µg/m3 19.06 µg/m3 2.85 µg/m3 11.01 °C 62.99 % 1,019.87 mbar 1.76 m/s 297.7 Deg 2.75 µg/m3
2022-01-23 19:00 38.7 µg/m3 1.85 µg/m3 45.61 µg/m3 11.18 µg/m3 5.71 µg/m3 11.36 °C 62.56 % 1,019.87 mbar 1.64 m/s 306.03 Deg 5.18 µg/m3
2022-01-23 18:00 23.43 µg/m3 1.89 µg/m3 66.57 µg/m3 9.53 µg/m3 4.95 µg/m3 12.1 °C 59.88 % 1,019.55 mbar 1.98 m/s 340.83 Deg 1.63 µg/m3
2022-01-23 17:00 15.58 µg/m3 1.89 µg/m3 75.16 µg/m3 7.8 µg/m3 2.16 µg/m3 12.39 °C 59.18 % 1,019.59 mbar 2.77 m/s 262.72 Deg 1.82 µg/m3
2022-01-23 16:00 8.97 µg/m3 1.76 µg/m3 80.14 µg/m3 7.26 µg/m3 2.45 µg/m3 12.7 °C 56.47 % 1,019.68 mbar 3.24 m/s 346.1 Deg 1.67 µg/m3
2022-01-23 15:00 8.21 µg/m3 1.77 µg/m3 80.86 µg/m3 7.16 µg/m3 4.91 µg/m3 12.87 °C 52.53 % 1,019.82 mbar 3.46 m/s 340.98 Deg 1.78 µg/m3
2022-01-23 14:00 5.28 µg/m3 1.8 µg/m3 82.88 µg/m3 9.56 µg/m3 5.55 µg/m3 13.05 °C 45.31 % 1,020.30 mbar 3.26 m/s 95.95 Deg 1.2 µg/m3
2022-01-23 13:00 6.54 µg/m3 1.92 µg/m3 79.74 µg/m3 14.55 µg/m3 5.67 µg/m3 13.15 °C 43.53 % 1,021.04 mbar 2.56 m/s 9.1 Deg 1.71 µg/m3
2022-01-23 12:00 6.71 µg/m3 2.23 µg/m3 76.98 µg/m3 20.99 µg/m3 9.03 µg/m3 12.93 °C 47.85 % 1,021.62 mbar 2.41 m/s 105.35 Deg 1.66 µg/m3
2022-01-23 11:00 8.06 µg/m3 1.9 µg/m3 73.26 µg/m3 14.23 µg/m3 12.62 µg/m3 12.61 °C 55.73 % 1,021.63 mbar 2.4 m/s 27.85 Deg 2.03 µg/m3
2022-01-23 10:00 10.6 µg/m3 1.63 µg/m3 67.55 µg/m3 10.74 µg/m3 20.02 µg/m3 12.2 °C 60.79 % 1,021.16 mbar 2.6 m/s 39.17 Deg 2.42 µg/m3
2022-01-23 09:00 12.72 µg/m3 1.57 µg/m3 64.31 µg/m3 11.56 µg/m3 9.33 µg/m3 11.6 °C 59.44 % 1,020.72 mbar 2.25 m/s 39.55 Deg 2.21 µg/m3
2022-01-23 08:00 11.16 µg/m3 1.51 µg/m3 66.72 µg/m3 12.06 µg/m3 5.79 µg/m3 10.9 °C 66.43 % 1,020.24 mbar 2.24 m/s 40.63 Deg 0.96 µg/m3
2022-01-23 07:00 6.55 µg/m3 1.54 µg/m3 72.01 µg/m3 12.91 µg/m3 6.96 µg/m3 10.55 °C 65.05 % 1,019.73 mbar 2.53 m/s 45.68 Deg 0.5 µg/m3
2022-01-23 06:00 6.44 µg/m3 1.51 µg/m3 70.75 µg/m3 14.66 µg/m3 8.41 µg/m3 10.65 °C 65.21 % 1,019.20 mbar 2.56 m/s 40.87 Deg 0.3 µg/m3
2022-01-23 05:00 5.39 µg/m3 1.8 µg/m3 71.17 µg/m3 10.84 µg/m3 10.54 µg/m3 10.72 °C 70.25 % 1,019.09 mbar 2.14 m/s 39.77 Deg 0.27 µg/m3
2022-01-23 04:00 7.86 µg/m3 1.6 µg/m3 64.93 µg/m3 12.89 µg/m3 13.87 µg/m3 10.6 °C 77.34 % 1,019.25 mbar 1.44 m/s 41.93 Deg 0.3 µg/m3
2022-01-23 03:00 4.3 µg/m3 1.44 µg/m3 71.25 µg/m3 16.74 µg/m3 20.53 µg/m3 10.04 °C 84.59 % 1,019.58 mbar 1.46 m/s 36.27 Deg 0.26 µg/m3
2022-01-23 02:00 5.77 µg/m3 1.43 µg/m3 71.79 µg/m3 24.85 µg/m3 23.91 µg/m3 9.42 °C 96.14 % 1,019.52 mbar 3.2 m/s 38.65 Deg 0.37 µg/m3
2022-01-23 01:00 42.55 µg/m3 1.73 µg/m3 21.5 µg/m3 39.5 µg/m3 16.76 µg/m3 10.12 °C 94.35 % 1,018.88 mbar 2.77 m/s 245.45 Deg 5.9 µg/m3
2022-01-23 00:00 41.29 µg/m3 1.66 µg/m3 22.56 µg/m3 47.1 µg/m3 23.33 µg/m3 10.69 °C 89.29 % 1,018.68 mbar 0.87 m/s 241.78 Deg 5.25 µg/m3
2022-01-22 23:00 37.9 µg/m3 1.63 µg/m3 33.62 µg/m3 53.55 µg/m3 23.5 µg/m3 10.92 °C 89.66 % 1,018.37 mbar 0.78 m/s 162.71 Deg 11.97 µg/m3
2022-01-22 22:00 58.21 µg/m3 1.6 µg/m3 13.85 µg/m3 31.99 µg/m3 9.57 µg/m3 10.77 °C 91.02 % 1,018.21 mbar 0.66 m/s 256.52 Deg 16.56 µg/m3
2022-01-22 21:00 21.72 µg/m3 1.56 µg/m3 53.73 µg/m3 17.87 µg/m3 4.39 µg/m3 11.14 °C 89.12 % 1,017.89 mbar 0.83 m/s 130.15 Deg 2.49 µg/m3
2022-01-22 20:00 11.33 µg/m3 1.7 µg/m3 64.71 µg/m3 19.54 µg/m3 5.45 µg/m3 11.16 °C 90.01 % 1,017.61 mbar 0.92 m/s 162.07 Deg 4.69 µg/m3
2022-01-22 19:00 5.67 µg/m3 1.68 µg/m3 69.24 µg/m3 17.08 µg/m3 6.46 µg/m3 10.94 °C 91.99 % 1,017.28 mbar 1.1 m/s 123.67 Deg 0.79 µg/m3
2022-01-22 18:00 10.42 µg/m3 1.69 µg/m3 67.79 µg/m3 8.85 µg/m3 6.98 µg/m3 11.73 °C 86.33 % 1,016.80 mbar 1.19 m/s 100.53 Deg 1.02 µg/m3
2022-01-22 17:00 9.78 µg/m3 1.59 µg/m3 73.23 µg/m3 9.34 µg/m3 6.28 µg/m3 12.76 °C 68.7 % 1,016.46 mbar 2.25 m/s 96.75 Deg 1.42 µg/m3
2022-01-22 16:00 6.65 µg/m3 1.49 µg/m3 77.46 µg/m3 11.98 µg/m3 5.85 µg/m3 13.08 °C 68.54 % 1,016.04 mbar 3.03 m/s 354.9 Deg 1.47 µg/m3
2022-01-22 15:00 5.88 µg/m3 1.55 µg/m3 79.04 µg/m3 13.39 µg/m3 4.94 µg/m3 13.31 °C 68.49 % 1,015.73 mbar 2.65 m/s 4.73 Deg 1.59 µg/m3
2022-01-22 14:00 7.41 µg/m3 1.33 µg/m3 77.21 µg/m3 16.5 µg/m3 7.03 µg/m3 13.33 °C 68.15 % 1,015.91 mbar 2.42 m/s 21.13 Deg 2.1 µg/m3
2022-01-22 13:00 11.4 µg/m3 1.2 µg/m3 69.8 µg/m3 25.16 µg/m3 7.93 µg/m3 12.8 °C 75.52 % 1,016.29 mbar 2.1 m/s 19.3 Deg 3.57 µg/m3
2022-01-22 12:00 29.69 µg/m3 1.61 µg/m3 49.55 µg/m3 23.69 µg/m3 12.93 µg/m3 11.6 °C 86.3 % 1,016.90 mbar 2.13 m/s 172.78 Deg 8.33 µg/m3
2022-01-22 11:00 23.05 µg/m3 1.74 µg/m3 58.5 µg/m3 27.37 µg/m3 22.71 µg/m3 12.53 °C 75.66 % 1,016.86 mbar 3.23 m/s 93.72 Deg 7.1 µg/m3
2022-01-22 10:00 26.59 µg/m3 1.58 µg/m3 57.03 µg/m3 30.3 µg/m3 16.13 µg/m3 13.15 °C 70.38 % 1,016.05 mbar 3.35 m/s 343.83 Deg 7.13 µg/m3
2022-01-22 09:00 34.45 µg/m3 1.71 µg/m3 48.39 µg/m3 16.55 µg/m3 8.39 µg/m3 12.25 °C 73.57 % 1,015.55 mbar 2.09 m/s 327.2 Deg 7.9 µg/m3
2022-01-22 08:00 46.59 µg/m3 1.46 µg/m3 33.9 µg/m3 16.13 µg/m3 6.39 µg/m3 10.9 °C 78.35 % 1,015.35 mbar 1.57 m/s 321.43 Deg 7 µg/m3
2022-01-22 07:00 24.14 µg/m3 1.3 µg/m3 54.16 µg/m3 9.37 µg/m3 4.85 µg/m3 10.89 °C 78.11 % 1,015.07 mbar 1.97 m/s 312.2 Deg 1.96 µg/m3
2022-01-22 06:00 11.33 µg/m3 1.41 µg/m3 66.07 µg/m3 8.07 µg/m3 5.43 µg/m3 10.74 °C 79.16 % 1,014.72 mbar 2.04 m/s 323.53 Deg 1 µg/m3
2022-01-22 05:00 5.04 µg/m3 1.44 µg/m3 69.38 µg/m3 10.06 µg/m3 7.46 µg/m3 10.61 °C 79.02 % 1,014.66 mbar 1.82 m/s 307.23 Deg 0.37 µg/m3
2022-01-22 04:00 3.86 µg/m3 1.36 µg/m3 72.29 µg/m3 11.79 µg/m3 9.43 µg/m3 10.82 °C 78.88 % 1,014.93 mbar 1.93 m/s 315.95 Deg 0.32 µg/m3
2022-01-22 03:00 3.31 µg/m3 1.45 µg/m3 72.63 µg/m3 13.81 µg/m3 16.29 µg/m3 10.12 °C 94.24 % 1,015.39 mbar 2.27 m/s 306.15 Deg 0.25 µg/m3
2022-01-22 02:00 4.57 µg/m3 1.4 µg/m3 70.92 µg/m3 16.61 µg/m3 30.55 µg/m3 10.71 °C 88.39 % 1,015.51 mbar 2.34 m/s 315.72 Deg 0.3 µg/m3
2022-01-22 01:00 8.53 µg/m3 1.57 µg/m3 63.52 µg/m3 26.75 µg/m3 14.75 µg/m3 10.88 °C 84.38 % 1,015.53 mbar 1.57 m/s 309.48 Deg 0.48 µg/m3
2022-01-22 00:00 11.32 µg/m3 1.31 µg/m3 62.35 µg/m3 36.44 µg/m3 9.79 µg/m3 10.71 °C 89.54 % 1,015.89 mbar 1.6 m/s 307.15 Deg 0.59 µg/m3
2022-01-21 23:00 24.53 µg/m3 1.52 µg/m3 48.3 µg/m3 31.85 µg/m3 16.27 µg/m3 11.24 °C 82.44 % 1,015.87 mbar 1.62 m/s 307.27 Deg 2.18 µg/m3
2022-01-21 22:00 27.97 µg/m3 1.63 µg/m3 46.26 µg/m3 27.77 µg/m3 10.18 µg/m3 11.24 °C 79.68 % 1,015.51 mbar 1.23 m/s 303.92 Deg 2.71 µg/m3
2022-01-21 21:00 25.29 µg/m3 1.53 µg/m3 55.46 µg/m3 17.44 µg/m3 10.67 µg/m3 11.84 °C 79.53 % 1,015.47 mbar 1.49 m/s 303.07 Deg 1.95 µg/m3
2022-01-21 20:00 28.42 µg/m3 1.57 µg/m3 54.81 µg/m3 16.4 µg/m3 6.72 µg/m3 11.94 °C 75.67 % 1,015.46 mbar 1.84 m/s 302.05 Deg 2.49 µg/m3
2022-01-21 19:00 40.19 µg/m3 1.67 µg/m3 46.62 µg/m3 19.11 µg/m3 3.93 µg/m3 11.84 °C 74.85 % 1,015.09 mbar 1.43 m/s 301.8 Deg 4.67 µg/m3
2022-01-21 18:00 32.96 µg/m3 1.68 µg/m3 58.85 µg/m3 26.84 µg/m3 4.15 µg/m3 12.32 °C 68.6 % 1,014.52 mbar 2.03 m/s 303.17 Deg 2.96 µg/m3
2022-01-21 17:00 24.9 µg/m3 1.54 µg/m3 69.17 µg/m3 26.22 µg/m3 6.14 µg/m3 13.31 °C 67.3 % 1,014.25 mbar 3.08 m/s 308.27 Deg 3.78 µg/m3
2022-01-21 16:00 20.02 µg/m3 1.66 µg/m3 73.84 µg/m3 23.06 µg/m3 7.27 µg/m3 13.85 °C 65.3 % 1,014.26 mbar 3.82 m/s 298.5 Deg 4.1 µg/m3
2022-01-21 15:00 17.77 µg/m3 1.6 µg/m3 76.94 µg/m3 25.75 µg/m3 7.72 µg/m3 14.29 °C 63.24 % 1,014.34 mbar 3.75 m/s 296.27 Deg 4.22 µg/m3
2022-01-21 14:00 13.58 µg/m3 1.6 µg/m3 79.01 µg/m3 19.64 µg/m3 7.48 µg/m3 14.42 °C 61.23 % 1,014.58 mbar 3 m/s 315.73 Deg 3.67 µg/m3
2022-01-21 13:00 12.46 µg/m3 1.56 µg/m3 78.51 µg/m3 17.2 µg/m3 6.94 µg/m3 14.6 °C 58.47 % 1,015.05 mbar 3.54 m/s 302.28 Deg 3.35 µg/m3
2022-01-21 12:00 14.13 µg/m3 1.57 µg/m3 76.8 µg/m3 22.76 µg/m3 10.85 µg/m3 14.46 °C 60.97 % 1,015.68 mbar 3.62 m/s 295.92 Deg 3.67 µg/m3
2022-01-21 11:00 17.42 µg/m3 1.62 µg/m3 72.3 µg/m3 40.19 µg/m3 13.27 µg/m3 14.2 °C 61.82 % 1,015.98 mbar 3.04 m/s 300.7 Deg 5.8 µg/m3
2022-01-21 10:00 31.57 µg/m3 1.77 µg/m3 57.55 µg/m3 47.03 µg/m3 17.66 µg/m3 13.74 °C 64.12 % 1,015.71 mbar 2.81 m/s 303.95 Deg 8.94 µg/m3
2022-01-21 09:00 70.26 µg/m3 2.03 µg/m3 23.07 µg/m3 40.47 µg/m3 16.69 µg/m3 12.09 °C 71.74 % 1,015.42 mbar 1.41 m/s 296.35 Deg 35.14 µg/m3
2022-01-21 08:00 61.55 µg/m3 1.88 µg/m3 35.44 µg/m3 26.75 µg/m3 10.72 µg/m3 11.41 °C 74.84 % 1,015.49 mbar 1.57 m/s 289.3 Deg 12.84 µg/m3
2022-01-21 07:00 42.98 µg/m3 1.73 µg/m3 53.56 µg/m3 12.65 µg/m3 11.75 µg/m3 11.11 °C 73.69 % 1,015.25 mbar 1.71 m/s 283.05 Deg 5.81 µg/m3
2022-01-21 06:00 16.56 µg/m3 1.53 µg/m3 79.55 µg/m3 9.59 µg/m3 10.05 µg/m3 11.05 °C 75.85 % 1,015.05 mbar 1.61 m/s 283.65 Deg 0.83 µg/m3
2022-01-21 05:00 5.44 µg/m3 1.47 µg/m3 89.05 µg/m3 9.5 µg/m3 10.64 µg/m3 11.06 °C 74.85 % 1,015.17 mbar 1.46 m/s 281.27 Deg 0.22 µg/m3
2022-01-21 04:00 4.28 µg/m3 1.47 µg/m3 90.2 µg/m3 9.53 µg/m3 17.24 µg/m3 11.27 °C 71.32 % 1,015.54 mbar 1.69 m/s 279.28 Deg 0.24 µg/m3
2022-01-21 03:00 2.58 µg/m3 1.32 µg/m3 85.94 µg/m3 9.37 µg/m3 19.62 µg/m3 11.44 °C 72.28 % 1,016.02 mbar 1.77 m/s 284.27 Deg 0.22 µg/m3
2022-01-21 02:00 3.04 µg/m3 1.44 µg/m3 85.83 µg/m3 12.46 µg/m3 17.47 µg/m3 11.42 °C 74.29 % 1,016.23 mbar 1.81 m/s 273.17 Deg 0.2 µg/m3
2022-01-21 01:00 3.42 µg/m3 1.41 µg/m3 83.97 µg/m3 16.39 µg/m3 7.97 µg/m3 11.74 °C 76.56 % 1,016.62 mbar 1.97 m/s 277.58 Deg 0.21 µg/m3
2022-01-21 00:00 6.85 µg/m3 1.55 µg/m3 77.32 µg/m3 21.3 µg/m3 3.3 µg/m3 11.96 °C 77.81 % 1,017.07 mbar 1.93 m/s 271.55 Deg 0.3 µg/m3
2022-01-20 23:00 15.41 µg/m3 1.65 µg/m3 70.28 µg/m3 32.27 µg/m3 4.77 µg/m3 11.98 °C 76.89 % 1,017.38 mbar 1.3 m/s 286.32 Deg 1.01 µg/m3
2022-01-20 22:00 17.48 µg/m3 1.52 µg/m3 70.54 µg/m3 37.01 µg/m3 4.31 µg/m3 11.93 °C 75.53 % 1,017.51 mbar 1.39 m/s 282.3 Deg 0.56 µg/m3
2022-01-20 21:00 43.9 µg/m3 1.67 µg/m3 39.73 µg/m3 36.41 µg/m3 1.3 µg/m3 11.53 °C 76.33 % 1,017.48 mbar 1.07 m/s 300.2 Deg 4.13 µg/m3
2022-01-20 20:00 42.37 µg/m3 1.57 µg/m3 44.28 µg/m3 25.63 µg/m3 0.74 µg/m3 11.98 °C 74.78 % 1,017.50 mbar 1.42 m/s 294.15 Deg 2.7 µg/m3
2022-01-20 19:00 49.49 µg/m3 1.69 µg/m3 38.53 µg/m3 16.45 µg/m3 1.48 µg/m3 12.53 °C 74.03 % 1,017.42 mbar 1.18 m/s 286.4 Deg 5.04 µg/m3
2022-01-20 18:00 30.91 µg/m3 1.47 µg/m3 56.28 µg/m3 17.7 µg/m3 2.96 µg/m3 13.11 °C 69.38 % 1,017.30 mbar 1.6 m/s 279.35 Deg 2.67 µg/m3
2022-01-20 17:00 24.28 µg/m3 1.23 µg/m3 64.69 µg/m3 18.14 µg/m3 5.91 µg/m3 13.89 °C 70.35 % 1,017.30 mbar 1.61 m/s 304.67 Deg 2.27 µg/m3
2022-01-20 16:00 20.61 µg/m3 1.42 µg/m3 68.42 µg/m3 19.05 µg/m3 6.05 µg/m3 14.12 °C 67.25 % 1,017.33 mbar 1.81 m/s 298.95 Deg 3.73 µg/m3
2022-01-20 15:00 22 µg/m3 1.36 µg/m3 66.23 µg/m3 15.69 µg/m3 7.69 µg/m3 14.4 °C 63.71 % 1,017.68 mbar 1.54 m/s 316.9 Deg 4.53 µg/m3
2022-01-20 14:00 15.57 µg/m3 1.63 µg/m3 71.34 µg/m3 12.37 µg/m3 8.9 µg/m3 14.32 °C 66.83 % 1,018.26 mbar 2.15 m/s 286.9 Deg 2.98 µg/m3
2022-01-20 13:00 20.01 µg/m3 1.36 µg/m3 66.01 µg/m3 13.56 µg/m3 10.8 µg/m3 14.05 °C 75.85 % 1,019.00 mbar 1.93 m/s 301.42 Deg 4.69 µg/m3
2022-01-20 12:00 11.51 µg/m3 1.47 µg/m3 74.51 µg/m3 18.15 µg/m3 13.5 µg/m3 14.68 °C 68.35 % 1,019.88 mbar 2.5 m/s 248.2 Deg 2.77 µg/m3
2022-01-20 11:00 8.35 µg/m3 1.01 µg/m3 76.59 µg/m3 19.31 µg/m3 7.67 µg/m3 14.19 °C 74.99 % 1,020.36 mbar 2.16 m/s 228.28 Deg 1.53 µg/m3
2022-01-20 10:00 14.2 µg/m3 1.33 µg/m3 74.37 µg/m3 24.21 µg/m3 5.24 µg/m3 14.16 °C 77.95 % 1,020.28 mbar 1.64 m/s 198.85 Deg 2.38 µg/m3
2022-01-20 09:00 49.14 µg/m3 1.34 µg/m3 38.79 µg/m3 14.27 µg/m3 4.94 µg/m3 13.16 °C 82.93 % 1,020.27 mbar 0.99 m/s 222.17 Deg 13.84 µg/m3
2022-01-20 08:00 68.85 µg/m3 1.61 µg/m3 27.48 µg/m3 9.63 µg/m3 5.55 µg/m3 12.14 °C 86.05 % 1,020.59 mbar 0.93 m/s 225.72 Deg 14.11 µg/m3
2022-01-20 07:00 36.12 µg/m3 1.51 µg/m3 50.94 µg/m3 8.28 µg/m3 6.4 µg/m3 11.44 °C 89.05 % 1,020.67 mbar 1.15 m/s 234.5 Deg 3.19 µg/m3
2022-01-20 06:00 14.91 µg/m3 1.56 µg/m3 67.33 µg/m3 8.91 µg/m3 7.93 µg/m3 11.18 °C 89.78 % 1,020.53 mbar 1.24 m/s 237.93 Deg 0.75 µg/m3
2022-01-20 05:00 9.27 µg/m3 1.44 µg/m3 71.93 µg/m3 7.64 µg/m3 11.45 µg/m3 11.17 °C 89.03 % 1,020.69 mbar 1.28 m/s 234.13 Deg 0.5 µg/m3
2022-01-20 04:00 6.67 µg/m3 1.5 µg/m3 75.72 µg/m3 7.48 µg/m3 9.36 µg/m3 11.83 °C 85.8 % 1,021.13 mbar 1.69 m/s 214.32 Deg 0.24 µg/m3
2022-01-20 03:00 11.91 µg/m3 1.36 µg/m3 70.2 µg/m3 9.17 µg/m3 7.89 µg/m3 12.67 °C 87.76 % 1,021.53 mbar 2.61 m/s 179.05 Deg 0.29 µg/m3
2022-01-20 02:00 6.67 µg/m3 1.46 µg/m3 76.76 µg/m3 10 µg/m3 5.47 µg/m3 12.56 °C 90.42 % 1,021.84 mbar 2.74 m/s 180.93 Deg 0.25 µg/m3
2022-01-20 01:00 16.19 µg/m3 1.31 µg/m3 61.27 µg/m3 10.34 µg/m3 5.93 µg/m3 12.3 °C 87.8 % 1,022.22 mbar 1.49 m/s 209.27 Deg 0.28 µg/m3
2022-01-20 00:00 13.81 µg/m3 1.23 µg/m3 66.99 µg/m3 9.92 µg/m3 4.36 µg/m3 12.56 °C 84.72 % 1,022.61 mbar 1.07 m/s 226.7 Deg 0.41 µg/m3
2022-01-19 23:00 20.83 µg/m3 1.26 µg/m3 59.86 µg/m3 13.58 µg/m3 4.53 µg/m3 12.45 °C 84.14 % 1,023.01 mbar 1.01 m/s 213.18 Deg 0.42 µg/m3
2022-01-19 22:00 11.79 µg/m3 1.26 µg/m3 67.69 µg/m3 16.85 µg/m3 3.55 µg/m3 12.21 °C 85.43 % 1,023.23 mbar 1.32 m/s 181.94 Deg 0.29 µg/m3
2022-01-19 21:00 11.28 µg/m3 1.42 µg/m3 71.5 µg/m3 11.98 µg/m3 4.38 µg/m3 12.4 °C 88.05 % 1,023.32 mbar 2.43 m/s 177.43 Deg 0.28 µg/m3
2022-01-19 20:00 6.29 µg/m3 1.4 µg/m3 73.97 µg/m3 11.19 µg/m3 5.27 µg/m3 12.65 °C 84.54 % 1,023.23 mbar 1.69 m/s 164.05 Deg 0.26 µg/m3
2022-01-19 19:00 4.65 µg/m3 1.4 µg/m3 75.51 µg/m3 15.86 µg/m3 6.35 µg/m3 12.43 °C 87.26 % 1,023.26 mbar 1.82 m/s 155.3 Deg 0.26 µg/m3
2022-01-19 18:00 2.9 µg/m3 1.42 µg/m3 80.19 µg/m3 11.55 µg/m3 5.21 µg/m3 11.71 °C 94.86 % 1,023.10 mbar 2.16 m/s 201.95 Deg 0.21 µg/m3
2022-01-19 17:00 3.48 µg/m3 1.36 µg/m3 82.46 µg/m3 14.81 µg/m3 4.78 µg/m3 13.59 °C 78.86 % 1,022.66 mbar 3.52 m/s 145.5 Deg 0.28 µg/m3
2022-01-19 16:00 2.71 µg/m3 1.54 µg/m3 84.17 µg/m3 13.19 µg/m3 6.53 µg/m3 14.12 °C 70.23 % 1,022.70 mbar 3.21 m/s 145.73 Deg 0.39 µg/m3
2022-01-19 15:00 4.52 µg/m3 1.54 µg/m3 82.32 µg/m3 11.6 µg/m3 7.91 µg/m3 14.27 °C 71.57 % 1,023.02 mbar 2.93 m/s 171.85 Deg 0.72 µg/m3
2022-01-19 14:00 4.33 µg/m3 1.59 µg/m3 82.29 µg/m3 12.02 µg/m3 9.9 µg/m3 14.52 °C 65.62 % 1,023.31 mbar 3.1 m/s 169.47 Deg 0.79 µg/m3
2022-01-19 13:00 4.44 µg/m3 1.39 µg/m3 81.92 µg/m3 18.02 µg/m3 12.17 µg/m3 14.61 °C 63.09 % 1,024.16 mbar 2.79 m/s 167.68 Deg 0.81 µg/m3
2022-01-19 12:00 4.02 µg/m3 1.42 µg/m3 82.37 µg/m3 16.13 µg/m3 20.87 µg/m3 14.41 °C 64.1 % 1,024.70 mbar 2.94 m/s 156.63 Deg 0.72 µg/m3
2022-01-19 11:00 3.46 µg/m3 1.63 µg/m3 78.92 µg/m3 18.01 µg/m3 26.54 µg/m3 14.14 °C 67.15 % 1,025.02 mbar 2.63 m/s 145.03 Deg 0.51 µg/m3
2022-01-19 10:00 5.05 µg/m3 1.4 µg/m3 71.36 µg/m3 24.92 µg/m3 12.25 µg/m3 13.39 °C 74.06 % 1,025.04 mbar 2.17 m/s 127.93 Deg 0.56 µg/m3
2022-01-19 09:00 9.47 µg/m3 1.46 µg/m3 62.59 µg/m3 23.29 µg/m3 10.42 µg/m3 12.61 °C 79.59 % 1,024.63 mbar 1.53 m/s 127.47 Deg 0.79 µg/m3
2022-01-19 08:00 6.34 µg/m3 1.45 µg/m3 68.8 µg/m3 18.08 µg/m3 9.15 µg/m3 12.16 °C 82.82 % 1,024.36 mbar 1.87 m/s 128.57 Deg 0.36 µg/m3
2022-01-19 07:00 19.76 µg/m3 1.65 µg/m3 56.71 µg/m3 18.66 µg/m3 7.66 µg/m3 12.18 °C 79.48 % 1,023.96 mbar 1.67 m/s 104.67 Deg 2.72 µg/m3
2022-01-19 06:00 26.65 µg/m3 1.63 µg/m3 40.55 µg/m3 18.1 µg/m3 11.09 µg/m3 11.77 °C 78.79 % 1,023.69 mbar 1.11 m/s 242.83 Deg 2.39 µg/m3
2022-01-19 05:00 20.66 µg/m3 1.58 µg/m3 42.73 µg/m3 14.71 µg/m3 7.11 µg/m3 11.57 °C 78.79 % 1,023.63 mbar 1.09 m/s 322.2 Deg 1.4 µg/m3
2022-01-19 04:00 10.93 µg/m3 1.39 µg/m3 57.98 µg/m3 14.58 µg/m3 5.65 µg/m3 11.4 °C 78.35 % 1,023.83 mbar 1.41 m/s 310.38 Deg 0.39 µg/m3
2022-01-19 03:00 6.91 µg/m3 1.4 µg/m3 65.69 µg/m3 14.29 µg/m3 6.69 µg/m3 11.57 °C 76.61 % 1,023.95 mbar 1.61 m/s 306.78 Deg 0.28 µg/m3
2022-01-19 02:00 6.68 µg/m3 1.67 µg/m3 67.18 µg/m3 20.11 µg/m3 8.71 µg/m3 11.58 °C 76.46 % 1,024.12 mbar 1.73 m/s 303.9 Deg 0.31 µg/m3
2022-01-19 01:00 13.49 µg/m3 1.75 µg/m3 59.55 µg/m3 24.73 µg/m3 10.52 µg/m3 11.36 °C 77.34 % 1,024.34 mbar 1.88 m/s 297.58 Deg 0.43 µg/m3
2022-01-19 00:00 17.82 µg/m3 1.7 µg/m3 56.13 µg/m3 38.98 µg/m3 19.13 µg/m3 11.35 °C 77.69 % 1,024.48 mbar 1.63 m/s 304.88 Deg 0.58 µg/m3
2022-01-18 23:00 26.01 µg/m3 1.62 µg/m3 48.8 µg/m3 51.41 µg/m3 17.86 µg/m3 11.03 °C 80.28 % 1,024.88 mbar 1.8 m/s 299.45 Deg 1.6 µg/m3
2022-01-18 22:00 38.92 µg/m3 1.49 µg/m3 35.64 µg/m3 46.95 µg/m3 13.99 µg/m3 10.83 °C 81.85 % 1,024.71 mbar 1.72 m/s 306.13 Deg 1.98 µg/m3
2022-01-18 21:00 63.16 µg/m3 1.82 µg/m3 17.05 µg/m3 51.09 µg/m3 17.19 µg/m3 11.17 °C 81.06 % 1,024.66 mbar 1.71 m/s 305.48 Deg 6.34 µg/m3
2022-01-18 20:00 85.3 µg/m3 1.96 µg/m3 3.7 µg/m3 36.64 µg/m3 7.07 µg/m3 11.73 °C 78.76 % 1,024.37 mbar 1.45 m/s 304.28 Deg 25.16 µg/m3
2022-01-18 19:00 60.73 µg/m3 1.85 µg/m3 28.94 µg/m3 22.48 µg/m3 3.76 µg/m3 12.51 °C 74.38 % 1,023.94 mbar 1.09 m/s 257 Deg 7.56 µg/m3
2022-01-18 18:00 33.17 µg/m3 1.62 µg/m3 57.95 µg/m3 18.26 µg/m3 4.16 µg/m3 12.96 °C 70.77 % 1,023.29 mbar 1.75 m/s 350.13 Deg 3.27 µg/m3
2022-01-18 17:00 19.86 µg/m3 1.63 µg/m3 73.65 µg/m3 22.76 µg/m3 3.1 µg/m3 13.62 °C 66.57 % 1,022.79 mbar 2.45 m/s 93.6 Deg 4.13 µg/m3
2022-01-18 16:00 12.03 µg/m3 1.31 µg/m3 81.31 µg/m3 19.45 µg/m3 3.87 µg/m3 14.14 °C 63.82 % 1,022.56 mbar 3.12 m/s 93.43 Deg 2.84 µg/m3
2022-01-18 15:00 12.15 µg/m3 1.47 µg/m3 80.11 µg/m3 19.9 µg/m3 3.28 µg/m3 14.11 °C 63.86 % 1,022.34 mbar 3.17 m/s 177.22 Deg 3.12 µg/m3
2022-01-18 14:00 18.66 µg/m3 1.49 µg/m3 79.01 µg/m3 22.01 µg/m3 4.27 µg/m3 14.13 °C 63.83 % 1,022.42 mbar 3.17 m/s 90.6 Deg 7.51 µg/m3
2022-01-18 13:00 10.2 µg/m3 1.42 µg/m3 80.32 µg/m3 22.88 µg/m3 5.84 µg/m3 14.42 °C 64.56 % 1,022.77 mbar 3.54 m/s 265.87 Deg 3.17 µg/m3
2022-01-18 12:00 10.28 µg/m3 1.47 µg/m3 79.12 µg/m3 29.53 µg/m3 8.98 µg/m3 14.18 °C 67.35 % 1,023.16 mbar 3.54 m/s 264.98 Deg 2.84 µg/m3
2022-01-18 11:00 13.34 µg/m3 1.31 µg/m3 72.45 µg/m3 32.88 µg/m3 9.84 µg/m3 14.24 °C 68.62 % 1,023.09 mbar 3.57 m/s 350.38 Deg 5.81 µg/m3
2022-01-18 10:00 48.3 µg/m3 1.76 µg/m3 37.63 µg/m3 40.86 µg/m3 7.46 µg/m3 13.6 °C 74.81 % 1,022.49 mbar 2.08 m/s 323.88 Deg 17.24 µg/m3
2022-01-18 09:00 71.5 µg/m3 1.96 µg/m3 13.73 µg/m3 33.9 µg/m3 5.43 µg/m3 11.93 °C 82.8 % 1,022.01 mbar 1.49 m/s 323.33 Deg 27.68 µg/m3
2022-01-18 08:00 65.77 µg/m3 1.79 µg/m3 14.9 µg/m3 18.78 µg/m3 6.78 µg/m3 11.23 °C 84.89 % 1,021.49 mbar 2 m/s 309.5 Deg 20.53 µg/m3
2022-01-18 07:00 52.56 µg/m3 1.63 µg/m3 28.38 µg/m3 20.42 µg/m3 6.61 µg/m3 11.8 °C 81.73 % 1,020.92 mbar 1.92 m/s 331.08 Deg 7.79 µg/m3
2022-01-18 06:00 26.25 µg/m3 1.48 µg/m3 49.13 µg/m3 18.65 µg/m3 7.21 µg/m3 11.12 °C 84.25 % 1,020.39 mbar 2.14 m/s 326.17 Deg 1.56 µg/m3
2022-01-18 05:00 10.28 µg/m3 1.33 µg/m3 57.98 µg/m3 11.84 µg/m3 8.84 µg/m3 10.28 °C 87.94 % 1,020.13 mbar 1.68 m/s 305.62 Deg 0.87 µg/m3
2022-01-18 04:00 6.79 µg/m3 1.6 µg/m3 61.97 µg/m3 13.09 µg/m3 11.83 µg/m3 10.4 °C 88.13 % 1,020.18 mbar 1.61 m/s 312.75 Deg 0.39 µg/m3
2022-01-18 03:00 4.57 µg/m3 1.45 µg/m3 65.81 µg/m3 13.81 µg/m3 10.79 µg/m3 10.68 °C 88.07 % 1,020.12 mbar 1.66 m/s 302.7 Deg 0.25 µg/m3
2022-01-18 02:00 5.42 µg/m3 1.51 µg/m3 67.34 µg/m3 13.42 µg/m3 13.21 µg/m3 11.35 °C 87.3 % 1,020.10 mbar 1.61 m/s 303.52 Deg 0.26 µg/m3
2022-01-18 01:00 5.93 µg/m3 1.59 µg/m3 70.44 µg/m3 16.54 µg/m3 3.56 µg/m3 11.94 °C 87.16 % 1,019.98 mbar 1.62 m/s 316.97 Deg 0.3 µg/m3
2022-01-18 00:00 11.34 µg/m3 1.29 µg/m3 65.26 µg/m3 17.09 µg/m3 0 µg/m3 12.13 °C 87.85 % 1,019.96 mbar 1.55 m/s 325.88 Deg 0.43 µg/m3
2022-01-17 23:00 13.48 µg/m3 1.51 µg/m3 64.39 µg/m3 23.03 µg/m3 0 µg/m3 12.01 °C 85.5 % 1,019.99 mbar 1.36 m/s 312.57 Deg 0.5 µg/m3
2022-01-17 22:00 11.61 µg/m3 1.41 µg/m3 70.98 µg/m3 22.68 µg/m3 0 µg/m3 12.48 °C 81.55 % 1,019.89 mbar 1.92 m/s 328.4 Deg 0.76 µg/m3
2022-01-17 21:00 15.09 µg/m3 1.4 µg/m3 68.18 µg/m3 31.67 µg/m3 0 µg/m3 12.65 °C 81.95 % 1,019.78 mbar 2.08 m/s 325.73 Deg 0.8 µg/m3
2022-01-17 20:00 22.02 µg/m3 1.42 µg/m3 65.21 µg/m3 30.67 µg/m3 0 µg/m3 12.59 °C 78.76 % 1,019.32 mbar 2.28 m/s 318.37 Deg 1.54 µg/m3
2022-01-17 19:00 24.49 µg/m3 1.31 µg/m3 66.15 µg/m3 26.58 µg/m3 0 µg/m3 12.89 °C 78.03 % 1,019.11 mbar 2.45 m/s 315.48 Deg 3.05 µg/m3

It is to be noted that the data is provisional and subject to quality assurance procedures. For validated data kindly refer your request to contact.air@era.org.mt